Погода в Ожогино

Россия / Курганская область     56°23′42″N   64°31′37″E
темп.,
°C
ветер,
м/с
пор.,
м/с
влажн.,
%
обл.,
%
осадки,
мм/ч
давл.,
гПа
погр.,
м
13 июня, вс
вс1323:00+14вюв007066 0.0 102410
02:00+13ю117025 0.0 102410
05:00+13ю127118 0.0 102410
08:00+19юз245557 0.0 1024283
11:00+23ююз3444100 0.0 10241254
14:00+24ююз3440100 0.0 10241825
17:00+24юз4543100 0.0 10231720
20:00+20ююз226229 0.0 102336
14 июня, пн
пн1423:00+16ю236140 0.0 102321
02:00+14ююз33675 0.0 102335
05:00+13ю35703 0.0 102472
08:00+19ююз475699 0.0 1024278
11:00+24юз58435 0.0 1023835
14:00+27юз68368 0.0 10211791
17:00+27юз58445 0.0 10211766
20:00+22юз4106481 0.0 1020284
15 июня, вт
вт1523:00+19юз411647 0.0 1019203
02:00+17юз41065100 0.0 1019166
05:00+17юз41161100 0.0 1019220
08:00+20зюз4761100 0.0 1018243
11:00+25зюз5751100 0.0 1017676
14:00+28юз6843100 0.0 10161478
17:00+27зюз585098 0.0 10151450
20:00+23зюз39687 0.0 1014251
16 июня, ср
ср1623:00+18зсз228140 0.3 101413
02:00+15сз3492100 0.6 101567
05:00+16зсз349196 1.0 101588
08:00+21сз237495 0.0 1016234
11:00+26зюз345464 0.0 1015977
14:00+28з454312 0.0 10141698
17:00+19ссв5870100 1.0 1013203
20:00+21зсз3879100 1.6 1014281
17 июня, чт
чт1723:00+17ююз5139158 2.3 1013286
02:00+16зюз399065 0.0 1012149
05:00+16зюз38935 0.0 1012168
08:00+22з36721 0.0 1010305
11:00+27зюз45525 0.0 10091048
14:00+29зюз454374 0.0 10081817
17:00+29ююз45443 0.0 10061438
20:00+25з5962100 0.0 1005375